Time,TemperatureF,DewpointF,PressureIn,WindDirection,WindDirectionDegrees,WindSpeedMPH,WindSpeedGustMPH,Humidity,HourlyPrecipIn,Conditions,Clouds,dailyrainin,SoftwareType,DateUTC
2013-06-05 00:02:00,72.0,72.0,30.05,WSW,240,0.0,0.0,100,0.00,,,0.37,,2013-06-05 04:02:00,
2013-06-05 00:13:00,72.0,72.0,30.05,WSW,240,0.0,0.0,100,0.00,,,0.37,,2013-06-05 04:13:00,
2013-06-05 00:23:00,72.0,72.0,30.03,WSW,240,0.0,0.0,100,0.00,,,0.37,,2013-06-05 04:23:00,
2013-06-05 00:33:00,72.0,72.0,30.03,WSW,240,0.0,0.0,100,0.00,,,0.43,,2013-06-05 04:33:00,
2013-06-05 00:42:00,72.0,72.0,30.03,WSW,240,0.0,0.0,100,0.00,,,0.43,,2013-06-05 04:42:00,
2013-06-05 00:53:00,72.0,72.0,30.03,WSW,240,0.0,0.0,100,0.00,,,0.43,,2013-06-05 04:53:00,
2013-06-05 01:02:00,72.0,72.0,30.03,WSW,240,0.0,0.0,100,0.00,,,0.43,,2013-06-05 05:02:00,
2013-06-05 01:12:00,72.0,72.0,30.03,WSW,240,0.0,0.0,100,0.00,,,0.43,,2013-06-05 05:12:00,
2013-06-05 01:22:00,72.0,72.0,30.02,WSW,240,0.0,0.0,100,0.00,,,0.43,,2013-06-05 05:22:00,
2013-06-05 01:32:00,73.0,73.0,30.01,WSW,240,0.0,0.0,100,0.00,,,0.43,,2013-06-05 05:32:00,
2013-06-05 01:42:00,73.0,73.0,30.01,WSW,240,0.0,0.0,100,0.00,,,0.43,,2013-06-05 05:42:00,
2013-06-05 01:52:00,72.0,72.0,30.01,WSW,240,0.0,0.0,100,0.00,,,0.43,,2013-06-05 05:52:00,
2013-06-05 02:02:00,72.0,72.0,30.01,WSW,240,0.0,0.0,100,0.00,,,0.43,,2013-06-05 06:02:00,
2013-06-05 02:12:00,72.0,72.0,30.01,WSW,240,0.0,0.0,100,0.00,,,0.43,,2013-06-05 06:12:00,
2013-06-05 02:22:00,72.0,72.0,30.00,WSW,240,0.0,0.0,100,0.00,,,0.43,,2013-06-05 06:22:00,
2013-06-05 02:32:00,72.0,72.0,30.00,WSW,240,0.0,0.0,100,0.00,,,0.43,,2013-06-05 06:32:00,
2013-06-05 02:42:00,72.0,72.0,30.00,WSW,240,0.0,0.0,100,0.00,,,0.43,,2013-06-05 06:42:00,
2013-06-05 02:52:00,72.0,72.0,29.99,WSW,240,0.0,0.0,100,0.00,,,0.43,,2013-06-05 06:52:00,
2013-06-05 03:02:00,72.0,72.0,29.99,WSW,240,0.0,0.0,100,0.00,,,0.43,,2013-06-05 07:02:00,
2013-06-05 03:12:00,72.0,72.0,29.99,WSW,240,0.0,0.0,100,0.00,,,0.43,,2013-06-05 07:12:00,
2013-06-05 03:22:00,72.0,72.0,29.99,WSW,240,0.0,0.0,100,0.00,,,0.43,,2013-06-05 07:22:00,
2013-06-05 03:32:00,72.0,72.0,29.98,WSW,240,0.0,0.0,100,0.00,,,0.43,,2013-06-05 07:32:00,
2013-06-05 03:42:00,72.0,72.0,29.98,WSW,240,0.0,0.0,100,0.00,,,0.43,,2013-06-05 07:42:00,
2013-06-05 03:52:00,72.0,72.0,29.98,WSW,240,0.0,0.0,100,0.00,,,0.43,,2013-06-05 07:52:00,
2013-06-05 04:02:00,72.0,72.0,29.97,WSW,240,0.0,0.0,100,0.00,,,0.43,,2013-06-05 08:02:00,
2013-06-05 04:12:00,72.0,72.0,29.97,WSW,240,0.0,0.0,100,0.00,,,0.43,,2013-06-05 08:12:00,
2013-06-05 04:22:00,72.0,72.0,29.97,WSW,240,0.0,0.0,100,0.00,,,0.43,,2013-06-05 08:22:00,
2013-06-05 04:32:00,72.0,72.0,29.98,WSW,240,0.0,0.0,100,0.00,,,0.43,,2013-06-05 08:32:00,
2013-06-05 04:42:00,72.0,72.0,29.98,WSW,240,0.0,0.0,100,0.00,,,0.43,,2013-06-05 08:42:00,
2013-06-05 04:52:00,72.0,72.0,29.98,WSW,240,0.0,0.0,100,0.00,,,0.43,,2013-06-05 08:52:00,
2013-06-05 05:02:00,72.0,72.0,29.97,WSW,240,0.0,0.0,100,0.00,,,0.43,,2013-06-05 09:02:00,
2013-06-05 05:12:00,72.0,72.0,29.97,WSW,240,0.0,0.0,100,0.00,,,0.43,,2013-06-05 09:12:00,
2013-06-05 05:22:00,72.0,72.0,29.97,WSW,240,0.0,0.0,100,0.00,,,0.43,,2013-06-05 09:22:00,
2013-06-05 05:33:00,72.0,72.0,29.97,WSW,240,0.0,0.0,100,0.00,,,0.43,,2013-06-05 09:33:00,
2013-06-05 05:43:00,72.0,72.0,29.97,WSW,240,0.0,0.0,100,0.00,,,0.43,,2013-06-05 09:43:00,
2013-06-05 05:53:00,72.0,72.0,29.96,WSW,240,0.0,0.0,100,0.00,,,0.43,,2013-06-05 09:53:00,
2013-06-05 06:03:00,72.0,72.0,29.97,WSW,240,0.0,0.0,100,0.00,,,0.43,,2013-06-05 10:03:00,
2013-06-05 06:12:00,72.0,72.0,29.97,WSW,240,0.0,0.0,100,0.00,,,0.43,,2013-06-05 10:12:00,
2013-06-05 06:22:00,72.0,72.0,29.97,WSW,240,0.0,0.0,100,0.00,,,0.43,,2013-06-05 10:22:00,
2013-06-05 06:33:00,72.0,72.0,29.97,WSW,240,0.0,0.0,100,0.00,,,0.43,,2013-06-05 10:33:00,
2013-06-05 06:42:00,72.0,72.0,29.97,WSW,240,0.0,0.0,100,0.00,,,0.43,,2013-06-05 10:42:00,
2013-06-05 06:53:00,72.0,72.0,29.98,WSW,240,0.0,0.0,100,0.00,,,0.43,,2013-06-05 10:53:00,
2013-06-05 07:02:00,72.0,72.0,29.98,WSW,240,0.0,0.0,100,0.00,,,0.43,,2013-06-05 11:02:00,
2013-06-05 07:12:00,72.0,72.0,29.98,WSW,240,0.0,0.0,100,0.00,,,0.43,,2013-06-05 11:12:00,
2013-06-05 07:22:00,72.0,72.0,29.98,WSW,240,0.0,0.0,100,0.00,,,0.43,,2013-06-05 11:22:00,
2013-06-05 07:32:00,72.0,72.0,29.99,WSW,240,0.0,0.0,100,0.00,,,0.43,,2013-06-05 11:32:00,
2013-06-05 07:42:00,72.0,72.0,29.99,WSW,240,0.0,0.0,100,0.00,,,0.43,,2013-06-05 11:42:00,
2013-06-05 07:52:00,72.0,72.0,29.99,WSW,240,0.0,0.0,100,0.00,,,0.43,,2013-06-05 11:52:00,
2013-06-05 08:02:00,72.0,72.0,30.00,WSW,240,0.0,0.0,100,0.00,,,0.43,,2013-06-05 12:02:00,
2013-06-05 08:12:00,72.0,72.0,30.00,WSW,240,0.0,0.0,100,0.00,,,0.43,,2013-06-05 12:12:00,
2013-06-05 08:22:00,72.0,72.0,30.00,WSW,240,0.0,0.0,100,0.00,,,0.43,,2013-06-05 12:22:00,
2013-06-05 08:32:00,73.0,73.0,30.00,WSW,240,0.0,0.0,100,0.00,,,0.43,,2013-06-05 12:32:00,
2013-06-05 08:44:00,73.0,73.0,30.00,WSW,240,0.0,0.0,100,0.00,,,0.43,,2013-06-05 12:44:00,
2013-06-05 08:52:00,73.0,73.0,30.01,North,11,2.0,2.0,100,0.00,,,0.43,,2013-06-05 12:52:00,
2013-06-05 09:02:00,73.0,73.0,29.96,NNE,23,0.0,0.0,100,0.00,,,0.43,,2013-06-05 13:02:00,
2013-06-05 09:12:00,73.0,73.0,29.96,NNE,23,0.0,0.0,100,0.00,,,0.43,,2013-06-05 13:12:00,
2013-06-05 09:22:00,73.0,73.0,30.02,NNE,23,0.0,0.0,100,0.00,,,0.43,,2013-06-05 13:22:00,
2013-06-05 09:32:00,74.0,74.0,30.02,NNE,20,0.0,0.0,100,0.00,,,0.43,,2013-06-05 13:32:00,
2013-06-05 09:42:00,75.0,75.0,30.02,NE,42,2.0,2.0,100,0.00,,,0.43,,2013-06-05 13:42:00,
2013-06-05 09:52:00,75.0,75.0,30.02,NE,42,2.0,2.0,100,0.00,,,0.43,,2013-06-05 13:52:00,
2013-06-05 10:02:00,75.0,75.0,30.02,NNE,30,2.0,2.0,100,0.00,,,0.43,,2013-06-05 14:02:00,
2013-06-05 10:12:00,76.0,76.0,30.01,ENE,69,0.0,0.0,100,0.00,,,0.43,,2013-06-05 14:12:00,
2013-06-05 10:22:00,76.0,76.0,30.01,ENE,69,0.0,0.0,100,0.00,,,0.43,,2013-06-05 14:22:00,
2013-06-05 10:32:00,77.0,76.0,30.02,ENE,69,0.0,0.0,98,0.00,,,0.43,,2013-06-05 14:32:00,
2013-06-05 10:42:00,78.0,77.0,30.02,ENE,69,0.0,0.0,97,0.00,,,0.43,,2013-06-05 14:42:00,
2013-06-05 10:52:00,78.0,77.0,30.02,ENE,69,0.0,0.0,97,0.00,,,0.43,,2013-06-05 14:52:00,
2013-06-05 11:02:00,79.0,77.0,30.02,ENE,69,0.0,0.0,95,0.00,,,0.43,,2013-06-05 15:02:00,
2013-06-05 11:12:00,79.0,77.0,30.02,ENE,69,0.0,0.0,95,0.00,,,0.43,,2013-06-05 15:12:00,
2013-06-05 11:22:00,79.0,77.0,30.02,ENE,69,0.0,0.0,94,0.00,,,0.43,,2013-06-05 15:22:00,
2013-06-05 11:33:00,80.0,77.0,30.03,ENE,77,0.0,0.0,91,0.00,,,0.43,,2013-06-05 15:33:00,
2013-06-05 11:42:00,80.0,76.0,30.03,ENE,77,0.0,0.0,87,0.00,,,0.43,,2013-06-05 15:42:00,
2013-06-05 11:53:00,80.0,76.0,30.03,ENE,77,0.0,0.0,87,0.00,,,0.43,,2013-06-05 15:53:00,
2013-06-05 12:03:00,80.0,76.0,30.03,ENE,77,0.0,0.0,87,0.00,,,0.43,,2013-06-05 16:03:00,
2013-06-05 12:12:00,80.0,76.0,30.03,ENE,77,0.0,0.0,87,0.00,,,0.43,,2013-06-05 16:12:00,
2013-06-05 12:23:00,80.0,75.0,30.02,ENE,77,0.0,0.0,85,0.00,,,0.43,,2013-06-05 16:23:00,
2013-06-05 12:32:00,81.0,76.0,30.01,East,90,2.0,2.0,85,0.00,,,0.43,,2013-06-05 16:32:00,
2013-06-05 12:42:00,82.0,73.0,30.01,ESE,104,6.0,6.0,75,0.00,,,0.43,,2013-06-05 16:42:00,
2013-06-05 12:54:00,82.0,73.0,30.01,ESE,104,6.0,6.0,75,0.00,,,0.43,,2013-06-05 16:54:00,
2013-06-05 13:02:00,83.0,74.0,30.01,ESE,105,4.0,4.0,74,0.00,,,0.43,,2013-06-05 17:02:00,
2013-06-05 13:13:00,83.0,74.0,30.01,ESE,105,4.0,4.0,74,0.00,,,0.43,,2013-06-05 17:13:00,
2013-06-05 13:22:00,83.0,74.0,30.00,ESE,110,0.0,0.0,75,0.00,,,0.43,,2013-06-05 17:22:00,
2013-06-05 13:33:00,83.0,74.0,29.99,ESE,110,0.0,0.0,74,0.00,,,0.43,,2013-06-05 17:33:00,
2013-06-05 13:43:00,83.0,73.0,29.98,ESE,110,0.0,0.0,73,0.00,,,0.43,,2013-06-05 17:43:00,
2013-06-05 13:52:00,83.0,73.0,29.98,ESE,110,0.0,0.0,73,0.00,,,0.43,,2013-06-05 17:52:00,
2013-06-05 14:02:00,82.0,72.0,29.98,NNE,18,2.0,3.0,72,0.00,,,0.43,,2013-06-05 18:02:00,
2013-06-05 14:12:00,80.0,71.0,29.98,ENE,58,4.0,4.0,74,0.00,,,0.43,,2013-06-05 18:12:00,
2013-06-05 14:22:00,80.0,71.0,29.98,ENE,58,4.0,4.0,74,0.00,,,0.43,,2013-06-05 18:22:00,
2013-06-05 14:32:00,79.0,73.0,30.01,NE,56,4.0,4.0,82,0.00,,,0.43,,2013-06-05 18:32:00,
2013-06-05 14:42:00,76.0,73.0,30.02,SE,138,4.0,4.0,91,0.00,,,0.43,,2013-06-05 18:42:00,
2013-06-05 14:52:00,76.0,73.0,30.02,SE,138,4.0,4.0,91,0.00,,,0.43,,2013-06-05 18:52:00,
2013-06-05 15:02:00,72.0,71.0,30.00,ENE,75,6.0,6.0,96,0.00,,,0.43,,2013-06-05 19:02:00,
2013-06-05 15:12:00,72.0,71.0,30.00,ENE,75,6.0,6.0,96,0.00,,,0.43,,2013-06-05 19:12:00,
2013-06-05 15:23:00,72.0,72.0,29.99,NE,52,0.0,0.0,99,0.00,,,0.43,,2013-06-05 19:23:00,
2013-06-05 15:32:00,72.0,72.0,29.99,NE,52,0.0,0.0,100,2.21,,,0.43,,2013-06-05 19:32:00,
2013-06-05 15:42:00,72.0,72.0,29.98,North,11,2.0,2.0,100,2.21,,,0.43,,2013-06-05 19:42:00,
2013-06-05 15:53:00,72.0,72.0,29.98,North,11,2.0,2.0,100,2.21,,,0.43,,2013-06-05 19:53:00,
2013-06-05 16:02:00,73.0,73.0,29.97,NE,39,2.0,2.0,100,2.21,,,0.43,,2013-06-05 20:02:00,
2013-06-05 16:12:00,73.0,73.0,29.98,NE,42,0.0,0.0,100,2.21,,,0.43,,2013-06-05 20:12:00,
2013-06-05 16:23:00,73.0,73.0,29.98,NE,42,0.0,0.0,100,2.21,,,0.43,,2013-06-05 20:23:00,
2013-06-05 16:32:00,73.0,73.0,29.97,NE,46,2.0,2.0,100,0.11,,,0.43,,2013-06-05 20:32:00,
2013-06-05 16:42:00,73.0,73.0,29.98,NNE,13,0.0,0.0,100,0.11,,,0.43,,2013-06-05 20:42:00,
2013-06-05 16:52:00,73.0,73.0,29.98,NNE,13,0.0,0.0,100,0.11,,,0.43,,2013-06-05 20:52:00,
2013-06-05 17:02:00,73.0,73.0,29.98,NNE,13,0.0,0.0,100,0.11,,,0.43,,2013-06-05 21:02:00,
2013-06-05 17:12:00,73.0,73.0,29.99,NE,35,0.0,0.0,100,0.11,,,0.43,,2013-06-05 21:12:00,
2013-06-05 17:22:00,73.0,73.0,29.99,NE,35,0.0,0.0,100,0.11,,,0.43,,2013-06-05 21:22:00,
2013-06-05 17:33:00,73.0,73.0,29.98,NE,35,0.0,0.0,100,0.69,,,0.43,,2013-06-05 21:33:00,
2013-06-05 17:43:00,73.0,73.0,29.98,NE,35,0.0,0.0,100,0.69,,,0.43,,2013-06-05 21:43:00,
2013-06-05 17:53:00,73.0,73.0,29.98,NE,35,0.0,0.0,100,0.69,,,0.43,,2013-06-05 21:53:00,
2013-06-05 18:02:00,73.0,73.0,29.97,North,359,1.0,0.0,100,0.69,,,0.43,,2013-06-05 22:02:00,
2013-06-05 18:12:00,73.0,73.0,29.97,North,359,1.0,0.0,100,0.69,,,0.43,,2013-06-05 22:12:00,
2013-06-05 18:22:00,73.0,73.0,29.96,NNE,30,0.0,0.0,100,0.35,,,0.43,,2013-06-05 22:22:00,
2013-06-05 18:33:00,73.0,73.0,29.96,NNE,30,0.0,0.0,100,0.35,,,0.43,,2013-06-05 22:33:00,
2013-06-05 18:42:00,73.0,73.0,29.96,NNE,30,0.0,0.0,100,0.35,,,0.43,,2013-06-05 22:42:00,
2013-06-05 18:53:00,73.0,73.0,29.96,NNE,30,0.0,0.0,100,0.35,,,0.43,,2013-06-05 22:53:00,
2013-06-05 19:02:00,73.0,73.0,29.95,NNE,18,0.0,1.0,100,0.35,,,0.43,,2013-06-05 23:02:00,
2013-06-05 19:12:00,73.0,73.0,29.94,North,3,0.0,0.0,100,0.03,,,0.43,,2013-06-05 23:12:00,
2013-06-05 19:22:00,73.0,73.0,29.94,North,3,0.0,0.0,100,0.03,,,0.43,,2013-06-05 23:22:00,
2013-06-05 19:32:00,73.0,73.0,29.94,North,3,0.0,0.0,100,0.03,,,0.43,,2013-06-05 23:32:00,
2013-06-05 19:42:00,73.0,73.0,29.94,North,3,0.0,0.0,100,0.03,,,0.43,,2013-06-05 23:42:00,
2013-06-05 19:53:00,73.0,73.0,29.94,North,3,0.0,0.0,100,0.03,,,0.43,,2013-06-05 23:53:00,
2013-06-05 20:02:00,73.0,73.0,29.94,North,3,0.0,0.0,100,0.03,,,0.43,,2013-06-06 00:02:00,
2013-06-05 20:12:00,73.0,73.0,29.94,North,3,0.0,0.0,100,0.00,,,0.43,,2013-06-06 00:12:00,
2013-06-05 20:22:00,73.0,73.0,29.94,North,3,0.0,0.0,100,0.00,,,0.43,,2013-06-06 00:22:00,
2013-06-05 20:32:00,73.0,73.0,29.94,North,3,0.0,0.0,100,0.00,,,0.43,,2013-06-06 00:32:00,
2013-06-05 20:42:00,73.0,73.0,29.94,NNE,15,1.0,0.0,100,0.00,,,0.43,,2013-06-06 00:42:00,
2013-06-05 20:52:00,73.0,73.0,29.94,NNE,15,1.0,0.0,100,0.00,,,0.43,,2013-06-06 00:52:00,
2013-06-05 21:02:00,73.0,73.0,29.94,ENE,58,0.0,0.0,100,0.00,,,0.43,,2013-06-06 01:02:00,
2013-06-05 21:12:00,74.0,74.0,29.94,ENE,58,0.0,0.0,100,0.00,,,0.43,,2013-06-06 01:12:00,
2013-06-05 21:22:00,74.0,74.0,29.94,ENE,58,0.0,0.0,100,0.00,,,0.43,,2013-06-06 01:22:00,
2013-06-05 21:32:00,73.0,73.0,29.94,ENE,58,0.0,0.0,100,0.00,,,0.43,,2013-06-06 01:32:00,
2013-06-05 21:42:00,73.0,73.0,29.94,ENE,58,0.0,0.0,100,0.00,,,0.43,,2013-06-06 01:42:00,
2013-06-05 21:53:00,73.0,73.0,29.94,ENE,58,0.0,0.0,100,0.00,,,0.43,,2013-06-06 01:53:00,
2013-06-05 22:02:00,73.0,73.0,29.94,ENE,58,0.0,0.0,100,0.00,,,0.43,,2013-06-06 02:02:00,
2013-06-05 22:12:00,73.0,73.0,29.94,ENE,58,0.0,0.0,100,0.00,,,0.43,,2013-06-06 02:12:00,
2013-06-05 22:22:00,73.0,73.0,29.94,ENE,58,0.0,0.0,100,0.00,,,0.43,,2013-06-06 02:22:00,
2013-06-05 22:32:00,73.0,73.0,29.94,ENE,58,0.0,0.0,100,0.00,,,0.43,,2013-06-06 02:32:00,
2013-06-05 22:42:00,73.0,73.0,29.94,ENE,58,0.0,0.0,100,0.00,,,0.43,,2013-06-06 02:42:00,
2013-06-05 22:52:00,73.0,73.0,29.94,ENE,58,0.0,0.0,100,0.00,,,0.43,,2013-06-06 02:52:00,
2013-06-05 23:02:00,73.0,73.0,29.94,ENE,58,0.0,0.0,100,0.00,,,0.43,,2013-06-06 03:02:00,
2013-06-05 23:12:00,73.0,73.0,29.94,ENE,58,0.0,0.0,100,0.00,,,0.43,,2013-06-06 03:12:00,
2013-06-05 23:22:00,73.0,73.0,29.93,ENE,58,0.0,0.0,100,0.00,,,0.43,,2013-06-06 03:22:00,
2013-06-05 23:33:00,74.0,74.0,29.93,ENE,58,0.0,0.0,100,0.00,,,0.43,,2013-06-06 03:33:00,
2013-06-05 23:43:00,74.0,74.0,29.93,ENE,58,0.0,0.0,100,0.00,,,0.43,,2013-06-06 03:43:00,
2013-06-05 23:53:00,74.0,74.0,29.93,ENE,58,0.0,0.0,100,0.00,,,0.43,,2013-06-06 03:53:00,